TimeCDT,TemperatureF,Dew PointF,Humidity,Sea Level PressureIn,VisibilityMPH,Wind Direction,Wind SpeedMPH,Gust SpeedMPH,PrecipitationIn,Events,Conditions,WindDirDegrees,DateUTC
12:52 AM,37.9,28.9,70,30.32,10.0,SE,3.5,-,N/A,,Overcast,140,2012-10-28 05:52:00
1:52 AM,37.9,28.0,68,30.32,10.0,East,4.6,-,N/A,,Overcast,100,2012-10-28 06:52:00
2:52 AM,37.9,27.0,65,30.32,10.0,SE,5.8,-,N/A,,Overcast,130,2012-10-28 07:52:00
3:52 AM,37.9,28.0,68,30.31,10.0,SE,4.6,-,N/A,,Overcast,140,2012-10-28 08:52:00
4:52 AM,37.0,28.0,70,30.31,10.0,SE,5.8,-,N/A,,Overcast,140,2012-10-28 09:52:00
5:52 AM,37.0,28.0,70,30.32,10.0,SSE,5.8,-,N/A,,Overcast,150,2012-10-28 10:52:00
6:52 AM,36.0,28.0,73,30.33,10.0,SSE,5.8,-,N/A,,Mostly Cloudy,150,2012-10-28 11:52:00
7:52 AM,34.0,27.0,75,30.34,10.0,SSE,5.8,-,N/A,,Mostly Cloudy,150,2012-10-28 12:52:00
8:52 AM,35.1,28.0,76,30.36,10.0,SSE,6.9,-,N/A,,Partly Cloudy,150,2012-10-28 13:52:00
9:52 AM,39.0,28.0,65,30.36,10.0,South,11.5,-,N/A,,Partly Cloudy,180,2012-10-28 14:52:00
10:52 AM,43.0,28.0,56,30.35,10.0,South,11.5,-,N/A,,Partly Cloudy,180,2012-10-28 15:52:00
11:52 AM,45.0,28.9,53,30.33,10.0,SSE,10.4,-,N/A,,Scattered Clouds,160,2012-10-28 16:52:00
12:52 PM,48.0,28.9,48,30.31,10.0,South,11.5,24.2,N/A,,Partly Cloudy,170,2012-10-28 17:52:00
1:52 PM,48.9,28.9,46,30.28,10.0,SSE,13.8,-,N/A,,Clear,150,2012-10-28 18:52:00
2:52 PM,51.1,28.9,43,30.25,10.0,South,10.4,-,N/A,,Clear,190,2012-10-28 19:52:00
3:52 PM,51.1,30.0,44,30.24,10.0,SE,9.2,18.4,N/A,,Partly Cloudy,140,2012-10-28 20:52:00
4:52 PM,51.1,28.9,43,30.24,10.0,South,11.5,-,N/A,,Scattered Clouds,180,2012-10-28 21:52:00
5:52 PM,50.0,30.0,46,30.23,10.0,SSE,11.5,-,N/A,,Scattered Clouds,150,2012-10-28 22:52:00
6:52 PM,46.0,30.0,54,30.23,10.0,SSE,11.5,-,N/A,,Scattered Clouds,150,2012-10-28 23:52:00
7:52 PM,44.1,30.0,58,30.25,10.0,SE,9.2,-,N/A,,Scattered Clouds,130,2012-10-29 00:52:00
8:52 PM,45.0,28.9,53,30.25,10.0,SSE,10.4,-,N/A,,Mostly Cloudy,150,2012-10-29 01:52:00
9:52 PM,45.0,28.9,53,30.25,10.0,SSE,12.7,-,N/A,,Mostly Cloudy,150,2012-10-29 02:52:00
10:52 PM,45.0,28.9,53,30.26,10.0,SSE,11.5,-,N/A,,Overcast,150,2012-10-29 03:52:00
11:52 PM,44.1,28.0,53,30.27,10.0,SSE,15.0,-,N/A,,Overcast,150,2012-10-29 04:52:00